Location: Litvinovka
(48.6667°N, 34.3500°E)
Time: 06:50:54
(UTC+00:00)

Cosmos 2278 Rocket - Pass Details

Date: 18 September 2020
Orbit: 842 x 845 km, 71.0° (Epoch: 19 October)

Event Time Altitude Azimuth Distance (km) Brightness Sun altitude
Exits shadow 21:22:36 22° 331° (NNW) 1,771 4.3 -39.8°
Drops below altitude 10° 21:26:10 10° 9° (N) 2,472 5.3 -39.9°
Sets 21:29:11 0° 24° (NNE) 3,410 6.1 -39.9°
